Flag for Brazil Weather past 2 weeks in Campo Grande, Mato Grosso Do Sul, Brazil

Now
70 °F

Clear.


Feels Like: 70 °F
Forecast: 65 / 83 °F
Wind: 9 mph from East

Location: Campo Grande Aeroporto

Current Time: Apr 27, 2015 at 2:26:42 AM

Latest Report: Apr 27, 2015 at 1:00 AM


Visibility: 10 mi

Pressure: 30.04 "Hg

Humidity: 73%

Dew point: 61 °F

Location of Campo GrandeLocation

Historic Weather in Campo Grande — Graph

°F

Campo Grande temperature yesterday

Maximum temperature yesterday: 82 °F (at 12:00 PM)
Minimum temperature yesterday: 70 °F (at 5:00 AM)
Average temperature yesterday: 75 °F

Past Weeks' High & Low Weather Summary

 TemperatureHumidityPressure
High88 °F (Apr 13, 2:00 PM)100% (Apr 17, 9:00 PM)30.12 "Hg (Apr 17, 9:00 PM)
Low64 °F (Apr 19, 5:00 AM)49% (Apr 12, 12:00 PM)29.86 "Hg (Apr 19, 3:00 PM)
Average75 °F79%29.99 "Hg
* Reported Apr 12 1:00 AM — Apr 27 1:00 AM, Campo Grande, Weather by CustomWeather, © 2015

Note: Actual official high and low records may vary slightly from our data, if they occured in-between our weather recording intervals... More about our weather records

Advertising

Campo Grande weather history for previous 24 hours

 ConditionsComfort  
Time TempWeatherWind HumidityBarometerVisibility
1:00 AM
Mon, Apr 27
70 °FClear.9 mph73%30.04 "Hg10 mi
12:00 AM70 °FClear.10 mph73%30.04 "Hg10 mi
11:00 PM
Sun, Apr 26
72 °FClear.10 mph69%30.04 "Hg10 mi
10:00 PM72 °FClear.10 mph73%30.04 "Hg10 mi
9:00 PM73 °FClear.10 mph74%30.04 "Hg10 mi
8:00 PM75 °FClear.9 mph69%30.04 "Hg10 mi
7:00 PM75 °FClear.8 mph69%30.01 "Hg10 mi
6:00 PM77 °FClear.9 mph65%30.01 "Hg10 mi
5:00 PM79 °FClear.10 mph61%29.98 "Hg10 mi
4:00 PM82 °FPassing clouds.6 mph55%29.98 "HgN/A
3:00 PM82 °FPassing clouds.7 mph51%30.01 "HgN/A
2:00 PM82 °FPassing clouds.8 mph55%30.01 "HgN/A
1:00 PM82 °FPassing clouds.6 mph55%30.04 "HgN/A
12:00 PM82 °FSunny.10 mph55%30.07 "Hg10 mi
11:00 AM81 °FSunny.14 mph58%30.07 "Hg10 mi
10:00 AM77 °FSunny.16 mph61%30.07 "Hg10 mi
9:00 AM75 °FSunny.17 mph65%30.07 "Hg10 mi
8:00 AM72 °FSunny.21 mph73%30.07 "Hg10 mi
7:00 AM70 °FSunny.17 mph83%30.04 "Hg10 mi
6:00 AM70 °FSunny.13 mph83%30.04 "Hg10 mi
5:00 AM70 °FSunny.10 mph83%30.01 "Hg10 mi
4:00 AM72 °FClear.9 mph78%30.01 "Hg10 mi
3:00 AM72 °FClear.10 mph78%30.01 "Hg10 mi
2:00 AM72 °FClear.9 mph78%30.01 "Hg10 mi
Weather by CustomWeather, © 2015

See weather overviewHow to use our weather pages